Theta_e
316 317 312 307 313 316 318 317 317 318 318 319 319 319 318 317 316 316 316 316 316 316 315 315 315 314 314 316 320 319 312 312 318 324 326 324 322 324 325 327 326 330 329 327 325
317 317 318 311 307 311 314 316 316 316 315 315 315 315 314 314 313 313 313 313 313 313 313 313 313 313 314 317 319 314 311 312 315 320 322 322 323 323 324 325 326 327 327 325 322
316 316 316 318 307 306 308 310 312 313 313 313 313 313 312 310 307 309 311 311 311 311 311 311 311 312 314 316 317 315 312 313 320 323 323 321 322 322 323 322 326 327 326 321 322
316 315 316 317 318 308 306 307 307 307 307 307 307 306 306 305 306 310 309 309 309 309 309 310 310 313 314 315 317 317 317 320 322 322 322 321 321 320 322 322 325 325 326 323 323
315 315 315 315 315 317 309 307 306 306 305 305 305 304 304 304 304 309 309 311 311 309 307 308 311 314 313 313 316 317 317 322 322 322 322 322 320 320 321 322 323 325 324 323 324
313 316 314 316 314 317 316 312 310 310 308 306 306 306 305 305 305 305 308 310 313 311 308 309 312 314 315 314 315 317 317 319 322 321 320 320 320 320 321 321 322 325 325 325 323
313 314 314 315 315 315 317 315 313 310 308 308 308 308 306 305 307 307 308 308 311 312 310 313 316 315 314 317 319 317 317 315 319 320 319 317 317 319 320 320 320 321 323 322 322
311 312 314 313 315 314 317 317 313 310 310 310 309 308 308 309 308 309 307 309 314 315 312 315 316 317 316 318 316 315 312 315 313 318 318 316 318 311 313 315 319 318 320 320 320
308 311 313 315 314 314 315 317 315 312 311 310 310 310 312 313 311 310 306 312 316 320 316 316 317 318 318 313 313 313 311 313 313 314 315 313 313 309 315 314 314 313 315 319 318
311 310 311 314 313 315 314 317 315 313 313 312 313 313 312 313 313 311 309 315 319 321 319 317 318 316 314 311 310 313 313 312 311 313 313 313 312 310 314 315 315 316 315 316 316
311 309 309 312 314 313 314 316 315 315 314 315 315 312 313 312 313 313 310 318 319 320 315 317 315 316 318 313 312 311 311 310 310 310 315 314 313 312 315 315 315 316 316 316 315
308 310 310 309 313 313 313 315 315 315 315 313 313 312 313 313 313 313 311 317 319 315 315 314 314 313 315 314 314 315 314 314 314 315 314 314 313 312 312 313 315 315 315 315 316
304 308 309 310 314 313 313 314 315 314 313 313 313 313 313 313 312 313 312 317 314 313 313 313 310 311 313 315 316 314 314 314 314 314 313 310 309 308 308 312 313 314 314 314 315
304 304 308 310 310 313 312 313 314 314 311 310 313 313 313 312 312 312 312 313 313 312 312 313 312 311 312 313 313 314 312 313 315 314 313 311 309 310 309 309 310 312 312 313 314
303 305 304 308 307 309 311 313 313 311 314 308 313 313 313 312 311 312 312 313 311 311 311 310 313 313 313 313 312 313 312 313 314 314 314 312 312 307 308 310 309 309 310 312 313
302 302 305 309 306 309 310 312 311 310 313 309 312 313 312 311 312 311 313 313 312 312 311 310 313 312 312 313 312 312 313 311 310 311 309 311 307 304 307 311 310 309 309 310 311
301 302 307 306 309 306 311 312 311 313 305 311 312 313 312 313 313 311 313 313 312 313 312 313 313 313 313 314 313 313 312 307 309 313 309 309 310 307 307 309 309 309 309 309 310
299 301 301 306 307 307 309 310 313 310 305 308 311 312 312 312 312 313 312 313 310 310 309 313 313 313 312 313 314 313 310 308 308 310 309 308 312 310 308 308 310 310 309 309 308
300 300 300 303 306 307 311 312 312 309 306 311 311 312 312 312 312 313 312 312 311 308 309 307 310 311 312 312 313 314 315 309 309 298 307 308 307 306 309 307 307 307 308 307 308
301 300 300 302 305 306 302 311 309 304 307 310 311 311 312 312 312 312 312 311 310 309 309 309 311 311 312 312 311 313 311 314 306 307 307 308 308 308 309 309 306 305 306 308 309
300 300 300 300 304 305 305 308 307 305 308 306 307 311 310 312 311 312 311 309 309 309 310 308 309 313 312 313 314 313 314 313 310 306 308 307 308 303 308 308 306 306 309 310 310
300 300 301 300 303 300 306 303 305 305 306 305 304 306 309 311 311 311 310 309 310 310 311 309 310 313 314 309 308 311 312 311 311 312 306 308 308 305 304 306 307 308 309 310 310
299 299 303 302 303 305 302 305 306 307 304 304 305 306 307 309 311 311 309 310 309 310 311 309 309 309 314 312 309 313 311 311 308 308 311 310 308 303 305 306 309 309 309 309 309
299 300 300 303 303 303 305 305 306 307 304 304 304 306 307 309 306 310 309 306 309 310 311 310 309 307 309 310 309 314 313 311 313 314 312 309 308 306 306 306 306 308 309 308 307
299 299 301 303 301 304 305 305 307 306 306 305 306 306 306 309 306 306 306 307 308 310 309 309 311 309 308 308 309 309 311 312 312 312 312 310 309 308 307 307 307 308 307 306 305
298 298 299 301 301 304 306 307 307 305 303 304 305 305 305 308 306 306 306 306 308 308 309 309 310 309 306 307 305 307 307 307 309 310 309 309 310 306 309 309 309 308 307 304 303
299 299 302 302 303 305 305 307 307 304 304 304 305 306 305 306 306 307 307 307 307 309 310 309 305 306 308 302 305 305 301 305 306 307 309 310 309 308 305 306 306 306 303 303 303
Wind_Speed
27 25 25 28 28 26 24 23 21 19 17 16 15 14 13 13 13 13 14 15 13 13 14 13 11 10 8 3 3 1 4 1 4 6 4 12 5 10 8 14 8 10 5 3 16
25 25 24 25 27 28 26 24 22 20 18 16 14 13 12 12 12 16 16 15 14 14 13 12 10 7 2 2 1 3 3 7 3 2 2 6 13 17 9 12 5 11 8 15 17
26 25 24 22 24 26 26 25 22 21 19 17 15 13 12 10 10 11 15 17 17 15 14 12 8 4 2 1 1 2 4 3 1 2 5 5 6 9 13 3 14 23 21 21 18
29 25 24 24 22 23 24 24 23 21 19 17 15 13 11 9 6 4 8 11 12 13 13 11 7 2 1 2 2 2 1 2 2 4 1 4 4 4 10 3 16 18 21 22 19
28 30 26 26 24 22 22 22 21 19 17 15 14 12 11 9 9 5 3 3 5 8 10 12 10 6 4 2 0 2 2 0 1 3 5 2 3 2 4 5 12 21 22 21 18
27 30 29 25 26 23 22 21 20 18 17 15 14 13 13 6 9 12 8 3 1 4 9 13 7 6 3 1 4 2 1 1 2 2 4 2 1 3 5 5 10 22 23 20 17
24 27 29 27 26 25 23 21 20 18 16 15 14 13 13 16 7 11 14 8 4 3 9 12 6 6 5 3 3 4 2 4 2 1 1 2 5 5 4 7 9 14 19 19 17
36 25 28 30 26 26 24 22 21 19 16 15 14 13 7 11 13 9 10 10 8 5 10 11 7 5 4 6 5 4 4 1 2 3 1 4 6 4 5 9 13 11 15 17 15
31 38 28 30 31 27 25 23 22 19 17 16 14 8 5 9 17 13 8 11 11 8 10 10 8 3 4 5 3 4 3 4 6 7 2 3 5 5 2 3 9 13 17 17 14
33 41 32 32 33 30 26 24 22 21 18 15 11 6 11 9 13 16 12 11 9 11 8 8 4 3 3 3 6 6 4 4 5 3 4 4 9 7 9 11 14 11 9 20 15
24 32 36 31 31 33 29 29 20 13 28 7 14 5 1 9 10 14 15 12 9 9 4 4 4 8 11 4 3 5 3 4 3 4 4 6 8 9 21 18 21 24 17 13 14
26 27 32 44 34 36 35 35 29 7 8 12 9 7 4 11 6 15 17 10 6 4 4 4 6 4 4 3 4 1 3 4 1 1 5 3 10 10 14 14 25 28 28 22 18
26 26 32 40 25 34 43 39 28 21 5 8 9 16 8 13 4 18 20 7 3 5 5 6 4 9 6 4 5 2 3 2 0 3 2 5 7 6 6 16 23 28 30 27 27
23 27 25 30 29 33 42 41 28 21 3 5 9 8 15 10 3 14 23 9 3 8 6 3 3 6 5 4 6 4 6 4 3 3 3 2 5 6 4 7 5 9 19 21 24
24 22 32 36 36 20 44 39 32 18 7 11 11 9 20 14 15 11 23 5 7 5 6 7 5 4 3 5 7 5 5 5 2 1 2 1 1 7 4 6 6 2 9 13 18
25 24 24 25 36 27 41 41 29 6 7 7 11 11 12 9 5 10 15 6 6 4 2 5 0 6 9 4 6 6 6 6 4 2 3 7 7 5 4 4 1 3 9 15 18
26 24 24 35 31 48 38 41 10 8 5 10 9 14 19 10 6 6 13 9 7 7 6 2 2 1 3 6 2 4 6 1 2 2 6 1 2 7 7 5 5 11 18 19 19
26 24 27 32 32 32 39 12 12 7 7 3 10 18 15 13 8 7 14 12 8 3 5 10 4 8 6 7 7 5 6 5 7 4 4 3 6 5 2 5 6 13 19 18 16
22 25 24 34 28 36 30 17 10 10 9 13 17 18 9 13 7 11 14 15 11 9 6 5 4 2 2 3 8 5 6 5 5 2 2 3 6 9 2 6 10 13 18 15 11
22 21 29 36 28 30 3 14 8 7 9 17 9 11 13 19 10 16 16 15 7 10 6 6 3 1 1 4 4 5 7 2 2 1 4 3 5 4 2 3 4 6 14 12 9
22 7 10 28 25 25 9 7 4 12 17 8 7 8 9 15 10 15 14 3 17 10 11 4 3 0 5 6 10 4 4 3 5 4 4 1 5 5 4 2 8 11 12 9 5
21 4 7 20 8 2 7 6 5 13 6 4 5 6 12 20 12 15 10 6 24 19 10 4 3 5 11 2 3 4 5 5 4 4 3 2 5 3 5 5 9 11 8 4 2
12 13 7 25 9 4 3 7 10 15 7 7 5 4 5 13 6 4 7 12 20 13 15 7 3 4 1 3 4 4 4 6 4 3 6 5 4 3 5 8 11 12 9 0 7
9 4 9 14 15 11 7 8 7 22 5 5 6 8 9 13 3 9 6 2 17 11 13 10 2 4 5 3 5 7 9 6 11 5 5 5 3 5 4 5 8 10 5 12 9
13 6 9 8 6 14 13 11 13 7 3 10 3 8 11 8 4 5 5 4 5 15 7 6 6 4 2 2 2 4 10 15 14 11 8 7 9 8 7 7 13 12 12 14 13
12 6 6 5 20 21 19 19 24 8 8 7 11 14 9 16 10 11 10 5 6 2 5 3 3 4 3 2 0 4 8 9 10 7 7 4 10 6 14 14 19 22 16 15 16
24 19 5 11 13 17 10 20 28 15 1 8 18 15 7 12 16 16 10 13 14 11 5 6 5 3 2 4 4 7 7 7 5 5 11 14 16 7 9 15 17 17 14 15 14
Wind_Direction
227 224 225 224 224 225 228 229 230 233 235 237 241 248 255 262 267 269 264 262 267 271 278 286 297 301 315 326 6 47 63 186 210 159 219 166 141 157 159 141 163 189 185 207 171
225 223 223 225 224 224 225 226 228 231 232 234 239 245 253 261 269 265 262 261 261 263 269 280 293 307 303 317 4 88 116 208 212 239 300 212 165 160 151 150 146 175 187 167 174
220 226 222 221 223 222 224 225 225 227 231 234 235 239 247 258 279 260 253 253 252 252 256 259 273 303 282 249 208 140 181 198 251 328 280 229 204 176 151 207 182 169 161 167 177
220 220 222 220 220 220 220 222 222 223 226 231 235 236 237 233 224 224 225 236 244 242 239 237 232 205 237 209 191 155 251 224 4 358 70 158 189 198 175 208 199 186 178 176 181
231 220 220 218 217 217 216 216 217 217 217 219 222 220 212 212 230 227 201 221 246 236 222 209 200 179 181 208 130 154 222 238 71 44 48 67 58 297 213 143 181 182 176 179 184
233 221 215 217 211 213 212 211 211 211 210 210 208 205 204 213 239 222 208 198 249 210 199 191 199 190 179 197 164 104 236 26 307 38 27 50 296 10 196 137 151 175 177 182 188
235 233 210 213 208 206 207 206 208 204 200 199 196 200 208 228 237 218 216 208 211 205 189 180 161 171 154 133 139 91 82 359 273 246 96 23 309 233 153 176 185 181 182 188 197
232 225 215 209 209 202 203 205 201 195 190 192 189 191 221 229 225 208 204 199 197 186 180 174 153 148 154 125 44 80 55 114 286 186 222 115 252 267 259 256 233 217 213 205 200
232 236 232 206 207 202 200 197 194 191 183 188 183 184 229 216 214 199 189 187 188 176 173 175 161 144 131 102 48 358 209 207 319 210 142 153 246 256 248 301 277 251 231 213 212
223 225 229 204 203 199 197 196 187 183 177 179 183 197 231 211 206 204 196 185 174 175 160 168 154 108 96 135 204 185 185 219 213 238 200 189 246 258 250 255 272 290 278 223 223
224 219 235 233 200 199 191 185 168 175 179 182 183 197 236 180 181 190 181 175 167 168 156 157 126 193 199 140 85 140 155 200 219 230 170 234 258 255 262 265 267 270 263 240 215
226 227 222 227 212 194 195 189 187 182 149 171 175 198 176 166 152 177 177 168 161 158 135 62 225 170 146 150 108 14 171 244 297 71 167 292 274 261 260 251 250 251 251 237 222
230 225 224 217 215 199 200 196 190 174 132 203 182 195 171 183 187 180 178 169 126 138 176 169 217 170 148 156 170 220 201 220 267 354 32 348 279 273 274 253 255 250 250 247 231
229 224 229 214 222 216 202 193 178 174 137 206 184 220 197 179 239 186 179 161 159 182 142 232 244 150 142 180 143 213 207 163 142 61 236 22 286 302 285 287 283 265 231 226 220
227 224 217 214 215 231 200 193 181 164 217 173 166 188 179 174 140 175 179 150 162 177 136 237 174 143 146 180 158 212 140 158 169 119 355 276 288 271 294 278 246 207 191 188 196
226 225 213 218 216 226 203 189 164 171 213 170 144 163 151 181 152 133 170 166 166 140 102 203 119 158 186 145 161 134 88 57 54 84 299 207 179 262 222 235 37 140 172 175 174
220 221 217 220 214 220 189 173 187 205 138 175 169 170 174 166 140 157 176 178 164 164 191 152 225 262 152 95 62 111 107 36 342 238 232 17 198 262 266 272 235 179 167 163 166
216 221 225 223 225 216 200 182 200 143 182 140 147 156 181 148 183 162 168 185 224 144 140 177 219 181 187 178 165 176 154 155 200 198 264 88 233 248 239 6 315 178 170 167 170
217 220 229 225 226 204 203 196 183 176 152 150 138 158 175 178 142 170 196 197 199 181 154 139 253 128 164 146 141 187 200 160 106 39 48 226 285 300 120 53 84 133 163 168 173
208 219 233 217 211 195 261 201 171 159 137 141 145 178 172 176 161 180 180 199 195 183 204 217 110 289 123 108 63 148 149 99 28 173 248 276 280 245 315 153 102 140 160 173 185
200 212 246 216 208 189 214 199 155 178 148 138 156 142 168 172 172 185 188 207 187 182 169 163 103 117 125 213 174 147 178 175 130 154 186 244 265 226 302 268 168 174 173 177 192
188 196 196 195 207 194 191 154 191 165 173 131 106 98 162 166 179 192 192 188 193 175 168 183 133 181 198 355 300 203 195 154 151 185 232 165 270 332 347 74 137 159 159 167 208
189 194 177 189 208 198 90 143 206 164 170 171 136 151 162 158 162 184 163 209 179 174 169 168 179 120 81 313 339 224 182 178 127 109 194 152 260 344 120 103 128 136 137 224 298
156 167 218 217 196 190 170 151 182 182 147 132 118 111 108 158 24 170 155 113 188 173 179 138 129 169 199 212 144 190 195 187 196 204 181 204 177 257 228 153 156 165 237 304 307
180 213 179 202 214 181 198 160 159 163 212 149 63 167 145 146 117 142 142 117 82 170 134 123 192 199 272 209 193 176 179 200 210 208 205 176 201 225 234 220 201 246 275 295 308
167 183 189 168 159 188 187 184 168 173 159 195 160 169 160 156 175 175 140 150 171 144 125 166 130 159 221 318 98 224 217 207 219 228 256 240 256 218 243 260 266 269 289 297 306
194 210 213 156 180 180 176 175 178 149 92 165 152 146 133 173 149 152 136 136 157 148 131 131 124 111 242 353 22 278 210 196 188 187 223 231 242 211 226 238 250 267 273 293 298